Location: HF.RADOM.PL
(51.4000°N, 21.1600°E)
Time: 05:32:25
(UTC+01:00)

NOAA 19 - Visible Passes

Search period start: 25 January 2020 00:00
Search period end: 04 February 2020 00:00
Orbit: 840 x 862 km, 99.2° (Epoch: 24 January)

Date Brightness Start Highest point End Pass type
(mag) Time Alt. Az. Time Alt. Az. Time Alt. Az.
25 Jan 6.4 05:04:58 10° NNE 05:10:12 44° E 05:15:24 10° S visible
25 Jan 5.7 06:45:51 10° N 06:50:48 36° WNW 06:55:44 10° SW visible
25 Jan 5.9 16:36:48 10° S 16:42:15 63° WSW 16:47:42 10° NNW visible
25 Jan 8.6 18:22:42 10° W 18:24:01 11° W 18:25:21 10° WNW visible
26 Jan 6.8 04:53:24 10° NNE 04:58:25 36° E 05:03:25 10° SSE visible
26 Jan 5.5 06:34:03 10° N 06:39:11 43° WNW 06:44:19 10° SW visible
26 Jan 8.3 18:09:23 10° WSW 18:12:07 14° W 18:14:50 10° NW visible
27 Jan 7.1 04:41:52 10° NE 04:46:38 29° E 04:51:21 10° SSE visible
27 Jan 5.3 06:22:15 10° N 06:27:34 52° WNW 06:32:50 10° SW visible
27 Jan 8.2 17:56:43 10° SW 18:00:14 17° W 18:03:45 10° NW visible
28 Jan 7.5 04:30:25 10° NE 04:34:49 24° E 04:39:10 10° SE visible
28 Jan 5.2 06:10:30 10° N 06:15:55 63° WNW 06:21:18 10° SSW visible
28 Jan 8.0 17:44:18 10° SW 17:48:22 21° W 17:52:28 10° NW visible
29 Jan 7.8 04:19:02 10° NE 04:22:58 20° E 04:26:52 10° SE visible
29 Jan 5.1 05:58:46 10° NNE 06:04:15 77° WNW 06:09:42 10° SSW visible
29 Jan 7.7 17:32:02 10° SSW 17:36:32 26° W 17:41:03 10° NW visible
30 Jan 8.0 04:07:48 10° NE 04:11:06 16° E 04:14:23 10° SE visible
30 Jan 5.2 05:47:03 10° NNE 05:52:33 88° ESE 05:58:02 10° SSW visible
30 Jan 7.3 17:19:54 10° SSW 17:24:43 31° W 17:29:34 10° NNW visible
31 Jan 8.3 03:56:49 10° ENE 03:59:12 13° E 04:01:36 10° ESE visible
31 Jan 5.5 05:35:22 10° NNE 05:40:51 73° ESE 05:46:19 10° S visible
31 Jan 6.9 17:07:51 10° SSW 17:12:56 38° W 17:18:02 10° NNW visible
01 Feb 5.8 05:23:42 10° NNE 05:29:07 60° ESE 05:34:31 10° S visible
01 Feb 6.5 16:55:54 10° S 17:01:09 46° W 17:06:26 10° NNW visible
02 Feb 6.2 05:12:03 10° NNE 05:17:22 49° E 05:22:39 10° S visible
03 Feb 6.6 05:00:28 10° NNE 05:05:36 40° E 05:10:43 10° SSE visible
03 Feb 8.5 18:17:13 10° WSW 18:19:21 12° W 18:21:29 10° WNW visible
